{"data":{"norad_id":48397,"epoch":"2026-09-20T04:25:37.166016Z","epoch_age_seconds":60841,"freshness":"FRESH","line1":"1 48397U 21038AW  26263.18445794 -.00000340  00000+0  81695-6 0  9998","line2":"2 48397  53.1603 147.4953 0001165  95.5245 264.5889 15.31706189298469","mean_motion":15.31706189,"eccentricity":0.0001165,"inclination_deg":53.1603,"raan_deg":147.4953,"arg_perigee_deg":95.5245,"mean_anomaly_deg":264.5889,"bstar":8.1695e-7,"rev_number":29846,"period_min":94.01280809214,"perigee_km":469.92365418019,"apogee_km":471.51943822145,"semimajor_km":6848.8585462008,"source":"CELESTRAK","updated_at":"2026-09-20T09:00:38.946515Z"}}